FW4454 Weather Reports


time (UTC)temp
F
wind
direction
speed
knots
gust
knots
rain 1hr
in
rain 24hr
in
rain mn
in
humidity
%
barometer
mb
20260506044016 51 158 1.7 4.3 0.00 0.12 0.02 95 1004.7
20260506043016 51 180 0.9 2.6 0.00 0.12 0.02 95 1004.7
20260506042018 51 203 0.9 2.6 0.01 0.12 0.02 95 1004.7
20260506041018 51 158 1.7 5.2 0.01 0.12 0.02 95 1004.7
20260506040016 51 135 1.7 4.3 0.01 0.12 0.02 95 1004.7
20260506035016 51 135 1.7 3.5 0.01 0.12 0.02 94 1004.6
20260506034016 51 135 0.9 2.6 0.01 0.12 0.02 94 1004.7
20260506033018 50 203 0.9 2.6 0.01 0.12 0.02 94 1004.7
20260506032016 50 203 0.9 1.7 0.00 0.11 0.01 94 1004.7
20260506031036 50 203 0.9 2.6 0.00 0.11 0.01 94 1004.7
20260506030016 50 0.0 2.6 0.00 0.11 0.01 93 1004.7
20260506025016 50 0.0 2.6 0.00 0.11 0.01 93 1004.7
20260506024016 51 0.0 0.0 0.00 0.11 0.01 93 1004.9
20260506023017 51 0.0 0.0 0.00 0.11 0.01 93 1004.8
20260506022016 51 0.0 0.0 0.00 0.11 0.01 93 1004.9
20260506021016 52 0.0 0.9 0.00 0.11 0.01 94 1005.0
20260506020016 52 0.0 1.7 0.00 0.11 0.01 94 1005.2
20260506015036 52 0.0 0.0 0.00 0.11 0.01 94 1005.3
20260506014016 52 0.0 0.9 0.00 0.11 0.01 94 1005.4
20260506013016 52 0.0 0.0 0.00 0.11 0.01 94 1005.5
20260506012016 52 0.0 1.7 0.00 0.11 0.01 94 1005.5
20260506011036 52 225 0.9 3.5 0.00 0.11 0.01 94 1005.6
20260506010016 53 225 0.9 3.5 0.00 0.11 0.01 94 1005.8
20260506005016 53 225 0.9 2.6 0.00 0.11 0.01 94 1005.7
20260506004017 53 225 0.9 3.5 0.00 0.11 0.01 94 1005.9
20260506003016 53 203 0.9 3.5 0.00 0.11 0.01 94 1005.9
20260506002017 53 0.0 2.6 0.00 0.11 0.01 94 1005.9
20260506001016 53 270 0.9 2.6 0.00 0.11 0.01 94 1005.9
20260506000016 53 248 0.9 2.6 0.00 0.11 0.01 94 1006.0
20260505235016 54 248 0.9 2.6 0.00 0.11 0.01 94 1006.1
20260505234016 54 248 1.7 4.3 0.00 0.11 0.01 94 1006.1
20260505233018 54 158 1.7 4.3 0.00 0.11 0.01 94 1006.0
20260505232015 54 0.0 0.0 0.00 0.11 0.01 94 1006.0
20260505231016 54 0.0 0.9 0.00 0.11 0.01 94 1006.2
20260505230016 54 0.0 0.9 0.01 0.11 0.01 94 1006.3
20260505225016 54 0.0 1.7 0.01 0.11 0.01 94 1006.3
20260505224016 54 0.0 0.0 0.01 0.11 0.01 94 1006.4
20260505223016 54 0.0 0.9 0.01 0.11 0.01 93 1006.4
20260505222058 54 0.0 0.0 0.01 0.11 0.01 93 1006.5
20260505221016 54 0.0 1.7 0.01 0.11 0.01 93 1006.6
20260505220016 54 0.0 0.0 0.00 0.10 0.10 93 1006.7
20260505215038 54 158 1.7 3.5 0.00 0.10 0.10 93 1006.7
20260505214016 54 158 0.9 1.7 0.00 0.10 0.10 93 1006.7
20260505213016 54 158 0.9 3.5 0.00 0.10 0.10 93 1006.7
20260505212016 54 0.0 0.0 0.00 0.10 0.10 93 1006.8
20260505211016 54 0.0 0.0 0.00 0.10 0.10 93 1006.7
20260505210016 54 0.0 0.9 0.00 0.10 0.10 93 1006.7
20260505205017 54 0.0 0.0 0.00 0.10 0.10 93 1006.7
20260505204016 54 0.0 0.0 0.00 0.10 0.10 93 1006.8
20260505203038 54 0.0 0.9 0.00 0.10 0.10 93 1006.8
20260505202016 54 180 0.9 2.6 0.00 0.10 0.10 93 1006.8
20260505201058 54 0.0 2.6 0.00 0.10 0.10 92 1006.7
20260505200016 55 0.0 0.0 0.00 0.10 0.10 92 1006.7
20260505195016 55 0.0 0.0 0.00 0.10 0.10 92 1006.7
20260505194017 55 0.0 0.0 0.00 0.10 0.10 92 1006.6
20260505193017 55 0.0 0.0 0.00 0.10 0.10 92 1006.5
20260505192017 55 0.0 0.0 0.00 0.10 0.10 92 1006.5
20260505191017 55 0.0 0.0 0.00 0.10 0.10 93 1006.4
20260505190019 55 0.0 0.0 0.00 0.10 0.10 93 1006.3
20260505185037 56 0.0 0.0 0.01 0.10 0.10 93 1006.2
20260505184017 56 0.0 0.0 0.01 0.10 0.10 93 1006.3
20260505183019 56 0.0 0.0 0.01 0.10 0.10 93 1006.3
20260505182017 56 0.0 0.0 0.01 0.10 0.10 93 1006.3
20260505181017 56 0.0 0.0 0.01 0.10 0.10 93 1006.3
20260505180019 56 0.0 0.0 0.02 0.10 0.10 93 1006.3
20260505175019 56 0.0 0.0 0.01 0.09 0.09 93 1006.3
20260505174018 56 0.0 0.0 0.01 0.09 0.09 93 1006.4
20260505173017 56 0.0 1.7 0.01 0.09 0.09 93 1006.4
20260505172017 56 0.0 0.9 0.01 0.09 0.09 93 1006.4
20260505171018 56 0.0 0.9 0.01 0.09 0.09 93 1006.4
20260505170017 56 203 0.9 2.6 0.00 0.09 0.09 92 1006.4
20260505165018 56 0.0 0.9 0.00 0.09 0.09 92 1006.5
20260505164017 56 180 0.9 2.6 0.00 0.09 0.09 92 1006.6
20260505163017 56 180 0.9 3.5 0.00 0.09 0.09 92 1006.6
20260505162058 57 158 1.7 3.5 0.00 0.09 0.09 92 1006.7
20260505161017 57 135 1.7 3.5 0.01 0.09 0.09 92 1006.7
20260505153017 56 158 1.7 4.3 0.02 0.09 0.09 91 1006.9
20260505152017 56 180 1.7 3.5 0.02 0.09 0.09 92 1006.9
20260505151017 57 225 0.9 2.6 0.02 0.08 0.08 91 1007.0
20260505125017 59 135 3.5 6.1 0.02 0.02 0.02 78 1007.6
20260505124039 62 135 1.7 3.5 0.00 0.00 0.00 72 1007.7
20260505123017 62 0.0 2.6 0.00 0.00 0.00 66 1007.7
20260505122037 63 203 0.9 3.5 0.00 0.00 0.00 66 1007.7
20260505121018 63 180 0.9 3.5 0.00 0.00 0.00 64 1007.8
20260505120017 63 203 0.9 3.5 0.00 0.00 0.00 65 1007.9
20260505115017 63 158 1.7 4.3 0.00 0.00 0.00 65 1008.0
20260505114017 63 158 1.7 5.2 0.00 0.00 0.00 65 1008.1
20260505113018 63 158 2.6 5.2 0.00 0.00 0.00 66 1008.2
20260505112017 63 135 1.7 4.3 0.00 0.00 0.00 69 1008.3
20260505111017 62 135 2.6 6.1 0.00 0.00 0.00 69 1008.2
20260505102019 63 203 0.9 2.6 0.00 0.00 0.00 70 1008.6
20260505101037 62 0.0 1.7 0.00 0.00 0.00 70 1008.6
20260505100017 62 90 1.7 3.5 0.00 0.00 0.00 69 1008.6
20260505095017 63 113 1.7 4.3 0.00 0.00 0.00 68 1008.6
20260505094017 64 90 2.6 7.0 0.00 0.00 0.00 65 1008.8
20260505093018 64 68 1.7 4.3 0.00 0.00 0.00 65 1008.8
20260505092017 62 23 1.7 3.5 0.00 0.00 0.00 67 1008.9
20260505091016 62 338 0.9 2.6 0.00 0.00 0.00 71 1009.0
20260505090038 61 0.0 1.7 0.00 0.00 0.00 70 1008.9
20260505085018 61 270 0.9 2.6 0.00 0.00 0.00 72 1009.0
20260505084037 61 225 1.7 2.6 0.00 0.00 0.00 71 1009.0
20260505083016 60 0.0 1.7 0.00 0.00 0.00 76 1009.1
20260505082018 59 0.0 0.9 0.00 0.00 0.00 77 1009.1
20260505081018 60 225 0.9 1.7 0.00 0.00 0.00 78 1009.3
20260505080100 60 0.0 1.7 0.00 0.00 0.00 80 1009.2
20260505075016 58 113 0.9 1.7 0.00 0.00 0.00 81 1009.2
20260505074016 58 0.0 0.0 0.00 0.00 0.00 81 1009.3
20260505073017 57 0.0 0.0 0.00 0.00 0.00 82 1009.4
20260505072037 57 0.0 0.0 0.00 0.00 0.00 83 1009.5
20260505071016 55 0.0 0.0 0.00 0.00 0.00 89 1009.5
20260505070016 56 0.0 0.9 0.00 0.00 0.00 89 1009.5
20260505065038 55 0.0 0.9 0.00 0.00 0.00 89 1009.5
20260505064016 55 0.0 0.0 0.00 0.00 0.00 91 1009.5
20260505063016 54 0.0 0.0 0.00 0.00 0.00 91 1009.5
20260505062058 54 0.0 0.9 0.00 0.00 0.00 92 1009.6
20260505061018 54 0.0 0.0 0.00 0.00 0.00 92 1009.6
20260505060036 54 0.0 0.0 0.00 0.00 0.00 92 1009.6
20260505055016 54 0.0 0.0 0.00 0.00 0.00 92 1009.5
20260505054036 53 0.0 0.0 0.00 0.00 0.00 93 1009.4
20260505053018 53 0.0 0.0 0.00 0.00 0.00 92 1009.4
20260505052016 52 0.0 0.0 0.00 0.00 0.00 92 1009.4
20260505051016 52 0.0 0.0 0.00 0.00 0.00 92 1009.4